Wahpeton, MN

2:42 PM CDT on July 22, 2017 (GMT -0500)
Stern

Weather History for KBWP - April, 2013

Change the Weather History Date:

Thursday, April 18, 2013

  Actual Average (KFFM) Record (KFFM)
Temperature  
Mean Temperature 32 °F -  
Max Temperature 33 °F 56 °F 80 °F (1973)
Min Temperature 30 °F 33 °F 15 °F (1953)
Degree Days  
Heating Degree Days 34    
Moisture  
Dew Point 28 °F    
Average Humidity 87    
Maximum Humidity 93    
Minimum Humidity 69    
Precipitation  
Precipitation 0.05 in - - ()
Sea Level Pressure  
Sea Level Pressure 29.90 in    
Wind  
Wind Speed 18 mph (North)    
Max Wind Speed 25 mph    
Max Gust Speed 38 mph    
Visibility 7 miles    
Events      
Averages and records for this station are not official NWS values.
T = Trace of Precipitation, MM = Missing Value Source: NWS Daily Summary

Daily Weather History Graph

Daily Weather History Graph

Search for Another Location

Airport or City:

Trip Planner

Search our weather history database for the weather conditions in past years. The results will help you decide how hot, cold, wet, or windy it might be!

Date:

Astronomy

Apr. 18, 2013 Rise Set
Actual Time 6:33 AM CDT 8:18 PM CDT
Civil Twilight 6:02 AM CDT 8:50 PM CDT
Nautical Twilight 5:23 AM CDT 9:29 PM CDT
Astronomical Twilight 4:41 AM CDT 10:11 PM CDT
Moon 12:43 PM CDT (4/18) 2:38 AM CDT (4/18)
Length of Visible Light 14h 47m
Length of Day
13h 44m
First Quarter, 52% of the Moon is Illuminated
Apr 18
First Quarter
Apr 25
Full
May 2
Last Quarter
May 9
New
May 17
First Quarter

Hourly Weather History & Observations

Time (CDT) Temp. Windchill Dew Point Humidity Pressure Visibility Wind Dir Wind Speed Gust Speed Precip Events Conditions
12:15 AM 32.0 °F 22.1 °F 30.2 °F 93% 30.09 in 3.0 mi North 13.8 mph - N/A   Unknown
12:35 AM 32.0 °F 21.6 °F 30.2 °F 93% 30.08 in 4.0 mi North 15.0 mph - N/A   Overcast
12:55 AM 32.0 °F 22.1 °F 30.2 °F 93% 30.06 in 4.0 mi North 13.8 mph - N/A   Overcast
1:15 AM 32.0 °F 21.6 °F 30.2 °F 93% 30.04 in 4.0 mi North 15.0 mph 21.9 mph N/A   Overcast
1:35 AM 32.0 °F 21.2 °F 30.2 °F 93% 30.04 in 4.0 mi North 16.1 mph 21.9 mph N/A   Overcast
1:55 AM 30.2 °F 18.9 °F 28.4 °F 93% 30.04 in 7.0 mi North 16.1 mph 20.7 mph N/A   Overcast
2:15 AM 30.2 °F 17.4 °F 28.4 °F 93% 30.01 in 7.0 mi North 20.7 mph 28.8 mph N/A   Overcast
2:35 AM 30.2 °F 18.1 °F 28.4 °F 93% 30.00 in 10.0 mi North 18.4 mph 28.8 mph N/A   Unknown
2:55 AM 30.2 °F 18.1 °F 28.4 °F 93% 30.00 in 10.0 mi North 18.4 mph - N/A   Unknown
3:15 AM 30.2 °F 20.2 °F 28.4 °F 93% 30.01 in 10.0 mi North 12.7 mph 19.6 mph N/A   Unknown
3:35 AM 30.2 °F 19.8 °F 28.4 °F 93% 30.01 in 7.0 mi NNW 13.8 mph - N/A   Unknown
3:55 AM 30.2 °F 18.9 °F 28.4 °F 93% 30.02 in 7.0 mi NNW 16.1 mph 20.7 mph N/A   Unknown
4:15 AM 30.2 °F 19.3 °F 28.4 °F 93% 30.02 in 5.0 mi North 15.0 mph - N/A   Unknown
4:35 AM 30.2 °F 20.8 °F 28.4 °F 93% 30.01 in 5.0 mi North 11.5 mph - N/A   Unknown
4:55 AM 30.2 °F 19.3 °F 28.4 °F 93% 29.99 in 7.0 mi North 15.0 mph - N/A   Unknown
5:15 AM 30.2 °F 19.8 °F 28.4 °F 93% 29.99 in 7.0 mi North 13.8 mph 18.4 mph N/A   Unknown
5:35 AM 30.2 °F 19.3 °F 28.4 °F 93% 29.98 in 3.0 mi North 15.0 mph - N/A   Unknown
5:55 AM 30.2 °F 18.9 °F 28.4 °F 93% 29.98 in 3.0 mi North 16.1 mph - N/A   Unknown
6:15 AM 30.2 °F 18.5 °F 28.4 °F 93% 29.97 in 3.0 mi North 17.3 mph - N/A   Unknown
6:35 AM 30.2 °F 18.9 °F 28.4 °F 93% 29.96 in 3.0 mi North 16.1 mph 23.0 mph N/A   Unknown
6:55 AM 30.2 °F 19.3 °F 28.4 °F 93% 29.96 in 4.0 mi North 15.0 mph - N/A   Unknown
7:15 AM 30.2 °F 17.4 °F 28.4 °F 93% 29.95 in 4.0 mi North 20.7 mph 25.3 mph N/A   Unknown
7:35 AM 30.2 °F 18.5 °F 28.4 °F 93% 29.94 in 3.0 mi North 17.3 mph 24.2 mph N/A   Unknown
7:55 AM 30.2 °F 18.5 °F 28.4 °F 93% 29.94 in 4.0 mi North 17.3 mph 24.2 mph N/A   Unknown
8:15 AM 30.2 °F 18.1 °F 28.4 °F 93% 29.94 in 4.0 mi North 18.4 mph 25.3 mph N/A   Unknown
8:35 AM 30.2 °F 17.8 °F 28.4 °F 93% 29.94 in 3.0 mi North 19.6 mph 28.8 mph N/A   Unknown
8:55 AM 30.2 °F 18.5 °F 28.4 °F 93% 29.93 in 2.0 mi North 17.3 mph 24.2 mph N/A   Unknown
9:15 AM 32.0 °F 20.1 °F 28.4 °F 87% 29.94 in 2.0 mi North 19.6 mph 26.5 mph N/A   Overcast
9:35 AM 32.0 °F 20.1 °F 28.4 °F 87% 29.92 in 2.0 mi North 19.6 mph 24.2 mph N/A   Overcast
9:55 AM 32.0 °F 20.8 °F 28.4 °F 87% 29.91 in 2.5 mi North 17.3 mph 25.3 mph N/A   Overcast
10:15 AM 32.0 °F 19.5 °F 28.4 °F 87% 29.89 in 2.5 mi North 21.9 mph 25.3 mph 0.01 in   Unknown
10:35 AM 32.0 °F 20.5 °F 30.2 °F 93% 29.89 in 3.0 mi North 18.4 mph 26.5 mph 0.03 in   Overcast
10:55 AM 32.0 °F 21.2 °F 30.2 °F 93% 29.88 in 3.0 mi North 16.1 mph 26.5 mph 0.05 in   Overcast
11:15 AM 32.0 °F 19.5 °F 28.4 °F 87% 29.88 in 4.0 mi North 21.9 mph 28.8 mph N/A   Overcast
11:35 AM 32.0 °F 21.2 °F 30.2 °F 93% 29.88 in 5.0 mi North 16.1 mph 31.1 mph N/A   Overcast
11:55 AM 32.0 °F 20.1 °F 30.2 °F 93% 29.89 in 10.0 mi North 19.6 mph 26.5 mph N/A   Overcast
12:15 PM 32.0 °F 20.5 °F 30.2 °F 93% 29.88 in 10.0 mi North 18.4 mph - N/A   Overcast
12:35 PM 32.0 °F 19.8 °F 30.2 °F 93% 29.87 in 7.0 mi North 20.7 mph 26.5 mph N/A   Unknown
12:55 PM 32.0 °F 19.8 °F 30.2 °F 93% 29.88 in 10.0 mi North 20.7 mph - N/A   Unknown
1:15 PM 32.0 °F 21.2 °F 30.2 °F 93% 29.87 in 10.0 mi North 16.1 mph - N/A   Overcast
1:35 PM 33.8 °F 22.2 °F 30.2 °F 87% 29.87 in 10.0 mi NNW 20.7 mph 25.3 mph N/A   Unknown
1:55 PM 32.0 °F 20.5 °F 30.2 °F 93% 29.86 in 7.0 mi North 18.4 mph 27.6 mph N/A   Unknown
2:15 PM 33.8 °F 21.3 °F 30.2 °F 87% 29.84 in 10.0 mi NNW 24.2 mph 29.9 mph N/A   Unknown
2:35 PM 33.8 °F 21.9 °F 30.2 °F 87% 29.84 in 10.0 mi North 21.9 mph 34.5 mph N/A   Unknown
2:55 PM 33.8 °F 22.5 °F 28.4 °F 81% 29.85 in 10.0 mi North 19.6 mph 29.9 mph N/A   Unknown
3:15 PM 33.8 °F 21.3 °F 28.4 °F 81% 29.84 in 10.0 mi North 24.2 mph 36.8 mph N/A   Unknown
3:35 PM 33.8 °F 21.0 °F 28.4 °F 81% 29.83 in 10.0 mi North 25.3 mph 32.2 mph N/A   Unknown
3:55 PM 33.8 °F 21.9 °F 28.4 °F 81% 29.82 in 10.0 mi North 21.9 mph 38.0 mph N/A   Unknown
4:15 PM 33.8 °F 21.3 °F 28.4 °F 81% 29.82 in 10.0 mi North 24.2 mph 34.5 mph N/A   Unknown
4:35 PM 33.8 °F 21.9 °F 28.4 °F 81% 29.83 in 10.0 mi North 21.9 mph 34.5 mph N/A   Unknown
4:55 PM 33.8 °F 21.9 °F 28.4 °F 81% 29.82 in 10.0 mi North 21.9 mph 35.7 mph N/A   Unknown
5:15 PM 33.8 °F 22.5 °F 28.4 °F 81% 29.82 in 10.0 mi NNW 19.6 mph 25.3 mph N/A   Unknown
5:35 PM 33.8 °F 21.9 °F 28.4 °F 81% 29.83 in 10.0 mi NNW 21.9 mph 28.8 mph N/A   Unknown
5:55 PM 32.0 °F 19.2 °F 26.6 °F 80% 29.83 in 10.0 mi NNW 23.0 mph 28.8 mph N/A   Unknown
6:15 PM 32.0 °F 19.8 °F 26.6 °F 80% 29.83 in 10.0 mi NNW 20.7 mph 27.6 mph N/A   Unknown
6:35 PM 32.0 °F 19.8 °F 26.6 °F 80% 29.82 in 10.0 mi NNW 20.7 mph 28.8 mph N/A   Unknown
6:55 PM 32.0 °F 19.5 °F 26.6 °F 80% 29.82 in 10.0 mi NNW 21.9 mph 28.8 mph N/A   Unknown
7:15 PM 32.0 °F 18.6 °F 26.6 °F 80% 29.82 in 10.0 mi NNW 25.3 mph 31.1 mph N/A   Unknown
7:35 PM 32.0 °F 18.6 °F 26.6 °F 80% 29.82 in 10.0 mi NNW 25.3 mph 29.9 mph N/A   Unknown
7:55 PM 32.0 °F 18.9 °F 26.6 °F 80% 29.81 in 10.0 mi NNW 24.2 mph 29.9 mph N/A   Unknown
8:15 PM 32.0 °F 18.9 °F 24.8 °F 75% 29.81 in 10.0 mi NNW 24.2 mph 31.1 mph N/A   Unknown
8:35 PM 32.0 °F 19.5 °F 24.8 °F 75% 29.82 in 10.0 mi NNW 21.9 mph 29.9 mph N/A   Unknown
9:55 PM 32.0 °F 19.8 °F 23.0 °F 69% 29.82 in 10.0 mi NNW 20.7 mph 28.8 mph N/A   Clear
10:15 PM 32.0 °F 19.5 °F 23.0 °F 69% 29.82 in 10.0 mi NNW 21.9 mph 26.5 mph N/A   Clear
10:35 PM 30.2 °F 17.4 °F 23.0 °F 75% 29.82 in 10.0 mi NNW 20.7 mph 25.3 mph N/A   Clear
10:55 PM 30.2 °F 17.8 °F 23.0 °F 75% 29.81 in 10.0 mi NNW 19.6 mph 27.6 mph N/A   Clear
11:15 PM 30.2 °F 17.4 °F 21.2 °F 69% 29.81 in 10.0 mi NNW 20.7 mph 26.5 mph N/A   Clear
11:35 PM 30.2 °F 17.8 °F 21.2 °F 69% 29.81 in 10.0 mi NNW 19.6 mph 26.5 mph N/A   Clear
11:55 PM 30.2 °F 18.5 °F 21.2 °F 69% 29.81 in 10.0 mi NNW 17.3 mph 24.2 mph N/A   Clear